Home > Weather > Brattleboro > Past weeks

Flag for USA Past Weather in Brattleboro, Vermont, USA — Yesterday and Last 2 Weeks

Now
68 °F

Clear.


Feels Like: 68 °F
Forecast: 60 / 86 °F
Wind: 3 mph from South

Location: Keene / Dillant

Current Time: Aug 26, 2016 at 9:32:55 PM

Latest Report: Aug 26, 2016 at 8:56 PM


Visibility: 10 mi

Pressure: 30.08 "Hg

Humidity: 84%

Dew Point: 63 °F

Location of BrattleboroLocation

Past Weather in Brattleboro — Graph

°F

Brattleboro Temperature Yesterday

Maximum temperature yesterday: 82 °F (at 2:56 PM)
Minimum temperature yesterday: 55 °F (at 6:03 AM)
Average temperature yesterday: 70 °F

High & Low Weather Summary for the Past Weeks

 TemperatureHumidityPressure
High91 °F (Aug 12, 2:56 PM)100% (Aug 12, 12:56 AM)30.37 "Hg (Aug 12, 12:56 AM)
Low45 °F (Aug 23, 5:56 AM)37% (Aug 19, 4:56 PM)29.80 "Hg (Aug 12, 3:56 PM)
Average71 °F79%30.05 "Hg
* Reported Aug 11 7:56 PM — Aug 26 7:56 PM, Brattleboro, Weather by CustomWeather, © 2016

Note: Actual official high and low records may vary slightly from our data, if they occured in-between our weather recording intervals... More about our weather records

Advertising

Brattleboro Weather History for the Previous 24 Hours

Scroll right to see more
 ConditionsComfort  
Time TempWeatherWind HumidityBarometerVisibility
7:56 PM
Fri, Aug 26
74 °FSunny.3 mph69%30.06 "Hg10 mi
6:56 PM81 °FSunny.6 mph53%30.03 "Hg10 mi
5:56 PM84 °FSunny.5 mph51%30.02 "Hg10 mi
4:56 PM85 °FPassing clouds.6 mph55%30.02 "Hg10 mi
3:56 PM85 °FScattered clouds.6 mph59%30.02 "Hg10 mi
2:56 PM84 °FPassing clouds.7 mph59%30.01 "Hg10 mi
1:56 PM82 °FSunny.3 mph70%30.01 "Hg9 mi
12:56 PM79 °FBroken clouds.7 mph79%30.01 "Hg10 mi
11:56 AM77 °FPartly sunny.6 mph85%30.01 "Hg10 mi
10:56 AM75 °FOvercast.5 mph88%30.01 "Hg10 mi
9:56 AM74 °FMostly cloudy.No wind88%30.01 "Hg10 mi
8:56 AM70 °FOvercast.No wind93%30.01 "Hg10 mi
8:03 AM70 °FMostly cloudy.3 mph94%29.97 "Hg9 mi
7:56 AM69 °FOvercast.No wind96%30.01 "Hg9 mi
6:56 AM67 °FFog.No wind97%30.01 "Hg4 mi
5:56 AM65 °FPartly cloudy.No wind100%30.01 "Hg8 mi
4:56 AM65 °FPassing clouds.No wind100%30.00 "Hg8 mi
3:56 AM65 °FPassing clouds.No wind97%30.00 "Hg8 mi
2:56 AM65 °FClear.No wind100%30.00 "Hg9 mi
1:56 AM66 °FClear.No wind96%30.00 "Hg7 mi
12:56 AM69 °FPassing clouds.No wind93%30.01 "Hg10 mi
11:56 PM
Thu, Aug 25
70 °FPassing clouds.No wind90%30.01 "Hg10 mi
10:56 PM73 °FPassing clouds.3 mph81%30.02 "Hg10 mi
9:56 PM73 °FPartly cloudy.3 mph84%30.02 "Hg10 mi
Weather by CustomWeather, © 2016

See weather overviewHow to use our weather pages